Tracking 18840 objects as of 18-November-2017
HD Live streaming from Space Station
objects crossing your sky now

FENGYUN 1C DEB

Track FENGYUN 1C DEB now!
10-day predictions


NORAD ID: 37463
Int'l Code: 1999-025EJH
Perigee: 643.2 km
Apogee: 813.2 km
Inclination: 98.8 °
Period: 99.2 minutes
Semi major axis: 7099 km
RCS: 0.0009 m2 (small)
Launch date: May 10, 1999
Source: People's Republic of China (PRC)
Launch site: Taiyaun Space Center, China (TSC)

Note: This is SATELLITE DEBRIS
aabbcc
Your satellite tracking list
Your tracking list is empty




NASA's NSSDC Master Catalog

Two Line Element Set (TLE):
1 37463U 99025EJH 17316.86993816  .00001337  00000-0  31798-3 0  9991
2 37463  98.8048 109.4133 0119705  60.0793 301.2226 14.51396811479613
Source of the keplerian elements: AFSPC